Lehigh Valley, PA

7:06 PM EST on February 27, 2017 (GMT -0500)
Lehigh Valley International

Weather History for KABE - February, 2013

Change the Weather History Date:

Monday, February 11, 2013

  Actual Average Record
Temperature  
Mean Temperature 37 °F 30 °F  
Max Temperature 42 °F 39 °F 64 °F (2009)
Min Temperature 32 °F 21 °F -6 °F (1962)
Degree Days  
Heating Degree Days 28 35  
Month to date heating degree days 424 395  
Since 1 July heating degree days 3417 3745  
Cooling Degree Days 0 0  
Month to date cooling degree days 0 0  
Year to date cooling degree days 0 0  
Moisture  
Dew Point 32 °F    
Average Humidity 74    
Maximum Humidity 100    
Minimum Humidity 47    
Precipitation  
Precipitation 0.32 in 0.10 in 1.40 in (1983)
Month to date precipitation 0.84 1.08  
Year to date precipitation 4.83 4.11  
Snow  
Snow 0.00 in 0.40 in 24.00 in (1983)
Month to date snowfall 7.3 4.5  
Since 1 July snowfall 16.8 20.4  
Snow Depth 2.00 in    
Sea Level Pressure  
Sea Level Pressure 29.92 in    
Wind  
Wind Speed 4 mph (SE)    
Max Wind Speed 16 mph    
Max Gust Speed 26 mph    
Visibility 3 miles    
Events Fog , Rain    
T = Trace of Precipitation, MM = Missing Value Source: NWS Daily Summary

Daily Weather History Graph

Daily Weather History Graph

Search for Another Location

Airport or City:

Trip Planner

Search our weather history database for the weather conditions in past years. The results will help you decide how hot, cold, wet, or windy it might be!

Date:

Astronomy

Feb. 11, 2013 Rise Set
Actual Time 7:00 AM EST 5:32 PM EST
Civil Twilight 6:32 AM EST 6:00 PM EST
Nautical Twilight 5:59 AM EST 6:32 PM EST
Astronomical Twilight 5:28 AM EST 7:04 PM EST
Moon 7:22 AM EST (2/11) 7:27 PM EST (2/11)
Length of Visible Light 11h 28m
Length of Day
10h 31m
Waxing Crescent, 3% of the Moon is Illuminated
Feb 11
Waxing Crescent
Feb 17
First Quarter
Feb 25
Full
Mar 4
Last Quarter
Mar 11
New

Hourly Weather History & Observations

Time (EST) Temp. Windchill Dew Point Humidity Pressure Visibility Wind Dir Wind Speed Gust Speed Precip Events Conditions
12:51 AM 34.0 °F 29.8 °F 18.0 °F 52% 30.27 in 10.0 mi SE 4.6 mph - N/A   Clear
1:51 AM 34.0 °F 28.0 °F 21.0 °F 59% 30.25 in 10.0 mi SSE 6.9 mph - N/A   Overcast
2:51 AM 34.0 °F 31.0 °F 21.0 °F 59% 30.22 in 10.0 mi ESE 3.5 mph - N/A   Overcast
3:51 AM 34.0 °F 31.0 °F 27.0 °F 75% 30.18 in 7.0 mi South 3.5 mph - 0.02 in Rain Light Rain
4:46 AM 33.8 °F 29.6 °F 28.4 °F 81% 30.15 in 7.0 mi SE 4.6 mph - 0.02 in Rain Light Rain
4:51 AM 33.1 °F 27.7 °F 28.0 °F 82% 30.16 in 7.0 mi ESE 5.8 mph - 0.03 in Rain Rain
5:14 AM 32.0 °F 27.5 °F 28.4 °F 87% 30.13 in 5.0 mi ESE 4.6 mph - 0.04 in Rain Light Freezing Rain
5:34 AM 32.0 °F 27.5 °F 28.4 °F 87% 30.12 in 4.0 mi East 4.6 mph - 0.06 in Rain Light Freezing Rain
5:51 AM 32.0 °F 26.4 °F 30.0 °F 92% 30.11 in 4.0 mi East 5.8 mph - 0.07 in Rain Light Freezing Rain
6:12 AM 32.0 °F 25.6 °F 30.2 °F 93% 30.09 in 3.0 mi ESE 6.9 mph - 0.03 in Rain Light Freezing Rain
6:21 AM 32.0 °F 25.6 °F 30.2 °F 93% 30.08 in 3.0 mi ESE 6.9 mph - 0.05 in Rain Light Freezing Rain
6:35 AM 32.0 °F 26.4 °F 30.2 °F 93% 30.07 in 3.0 mi East 5.8 mph - 0.06 in   Overcast
6:51 AM 32.0 °F 27.5 °F 30.9 °F 96% 30.08 in 2.0 mi East 4.6 mph - 0.08 in Rain Light Freezing Rain
6:59 AM 33.8 °F 29.6 °F 30.2 °F 87% 30.07 in 2.0 mi East 4.6 mph - 0.01 in Rain Light Rain
7:38 AM 33.8 °F 30.8 °F 30.2 °F 87% 30.05 in 1.2 mi ENE 3.5 mph - 0.06 in Rain Light Rain
7:51 AM 33.1 °F 30.0 °F 30.9 °F 92% 30.06 in 1.2 mi East 3.5 mph - 0.08 in Rain Light Rain
8:51 AM 33.1 °F 28.7 °F 32.0 °F 96% 30.02 in 1.2 mi East 4.6 mph - 0.03 in   Overcast
9:51 AM 34.0 °F 29.8 °F 32.0 °F 92% 29.98 in 1.0 mi East 4.6 mph - 0.01 in   Overcast
9:58 AM 33.8 °F 29.6 °F 32.0 °F 93% 29.96 in 1.0 mi East 4.6 mph - N/A   Overcast
10:34 AM 33.8 °F - 32.0 °F 93% 29.96 in 0.5 mi Calm Calm - N/A   Overcast
10:51 AM 34.0 °F 29.8 °F 33.1 °F 96% 29.95 in 0.5 mi East 4.6 mph - N/A   Overcast
11:35 AM 35.6 °F - 33.8 °F 93% 29.91 in 0.2 mi Calm Calm - N/A Fog Fog
11:51 AM 35.1 °F - 34.0 °F 96% 29.91 in 0.5 mi Calm Calm - N/A Fog Fog
11:58 AM 35.6 °F - 33.8 °F 93% 29.89 in 0.2 mi Calm Calm - N/A Fog Fog
12:51 PM 36.0 °F - 35.1 °F 97% 29.85 in 0.2 mi Calm Calm - N/A Fog Fog
1:51 PM 36.0 °F 33.3 °F 35.1 °F 97% 29.81 in 0.2 mi North 3.5 mph - N/A Fog Fog
2:51 PM 37.0 °F - 37.0 °F 100% 29.78 in 0.2 mi Calm Calm - N/A Fog Fog
3:51 PM 37.0 °F - 37.0 °F 100% 29.74 in 0.2 mi Calm Calm - N/A Fog Fog
4:51 PM 37.0 °F 34.5 °F 36.0 °F 96% 29.72 in 0.2 mi NNW 3.5 mph - N/A Fog Fog
5:51 PM 36.0 °F - 36.0 °F 100% 29.70 in 0.2 mi Calm Calm - N/A Fog Fog
6:51 PM 37.0 °F - 36.0 °F 96% 29.68 in 0.2 mi Calm Calm - N/A Fog Fog
7:51 PM 37.0 °F 34.5 °F 36.0 °F 96% 29.68 in 0.2 mi West 3.5 mph - N/A Fog Fog
8:51 PM 37.0 °F 32.4 °F 35.1 °F 93% 29.71 in 0.2 mi NW 5.8 mph - N/A Fog Fog
9:02 PM 37.4 °F 34.9 °F 37.4 °F 100% 29.70 in 0.5 mi NW 3.5 mph - N/A Fog Fog
9:09 PM 37.4 °F - 37.4 °F 100% 29.70 in 0.2 mi Calm Calm - N/A Fog Fog
9:46 PM 35.6 °F 30.7 °F 35.6 °F 100% 29.72 in 0.2 mi SW 5.8 mph - N/A Fog Fog
9:51 PM 36.0 °F 32.1 °F 35.1 °F 97% 29.73 in 0.2 mi SW 4.6 mph - N/A Fog Fog
10:42 PM 37.4 °F 32.8 °F 35.6 °F 93% 29.73 in 0.8 mi SSW 5.8 mph - N/A   Mist
10:47 PM 37.4 °F 32.8 °F 35.6 °F 93% 29.73 in 0.2 mi SSW 5.8 mph - N/A Fog Fog
10:51 PM 36.0 °F 32.1 °F 36.0 °F 100% 29.75 in 0.2 mi SW 4.6 mph - N/A Fog Fog
10:58 PM 35.6 °F 31.7 °F 35.6 °F 100% 29.73 in 0.2 mi SW 4.6 mph - N/A Fog Fog
11:15 PM 35.6 °F 30.7 °F 33.8 °F 93% 29.74 in 1.0 mi Variable 5.8 mph - N/A   Mostly Cloudy
11:24 PM 37.4 °F 30.3 °F 35.6 °F 93% 29.74 in 1.0 mi West 10.4 mph 26.5 mph N/A   Scattered Clouds
11:48 PM 42.8 °F 36.2 °F 32.0 °F 66% 29.75 in 10.0 mi West 12.7 mph 20.7 mph N/A   Clear
11:51 PM 42.1 °F 35.7 °F 32.0 °F 67% 29.75 in 10.0 mi West 11.5 mph 20.7 mph N/A   Clear